GFSMA_con_mlcape_000.txt.gz
CAPE
989 1302 1109 1172 1114 981 906 1021 914 847 751 637 640 766 870 844 405 285 1134 1257 881 675 1291 1648 1515 1307 1084 849 634 419 603 528 349 355 383 395 295 129 148 167 232 487 446
1096 1183 944 807 593 825 829 870 833 663 560 602 612 552 556 691 716 310 442 938 1008 761 830 1513 1640 1624 1358 1114 890 743 736 1057 709 501 424 266 226 332 336 428 781 733 374
1227 1131 959 734 543 554 564 604 470 283 257 323 393 462 431 377 422 367 370 692 901 1073 742 854 1580 1710 1757 1519 1183 1135 1102 914 837 663 520 509 655 753 798 784 703 389 433
1039 1020 866 686 648 607 631 436 266 356 301 276 218 185 198 136 330 466 499 546 768 1020 1068 805 810 1517 1790 1743 1803 1394 1327 1312 1336 1165 772 592 549 333 498 711 811 388 331
930 1056 751 758 813 643 507 461 396 333 209 181 113 219 248 189 171 247 352 564 640 798 903 1005 852 819 1193 1655 1852 1954 1812 1462 1126 1194 1423 1253 933 771 535 315 178 161 213
1070 1093 730 759 778 739 610 571 506 270 260 261 121 233 202 124 57 66 102 166 312 590 899 938 978 1001 1009 1004 1526 2021 2003 1734 1513 1403 1390 1275 1162 889 719 642 389 429 431
1022 911 705 618 768 617 536 486 402 415 341 248 199 79 16 2 0 38 121 204 233 388 648 748 805 754 1014 981 832 978 1895 2128 1786 1493 1624 1574 1146 1045 891 705 595 629 513
949 643 632 698 550 403 381 314 240 246 221 362 152 82 0 0 0 0 11 64 267 363 407 531 463 616 563 650 773 809 766 1275 1645 1820 1537 1523 1461 1335 1152 870 625 490 316
231 54 129 118 101 212 158 220 289 318 190 279 280 162 17 0 0 0 0 10 34 29 125 124 198 345 555 594 725 646 683 716 644 1257 1829 1733 1494 1255 983 724 559 417 338
0 0 1 112 199 99 66 168 346 332 221 115 95 139 83 55 1 0 0 0 0 0 0 0 22 209 298 300 369 473 571 553 690 708 1209 1820 1755 1507 1242 863 673 535 404
0 0 100 151 16 0 2 54 24 127 164 144 30 9 0 0 0 0 0 0 0 0 0 0 0 0 37 80 34 0 79 272 485 623 786 1054 1391 1898 1633 1467 1124 639 459
0 0 8 0 0 0 0 2 80 52 53 120 30 0 0 0 0 0 0 0 0 0 0 0 0 0 58 128 166 211 203 168 414 591 696 747 672 830 1668 1730 1560 1266 768
0 0 0 0 0 0 0 7 9 0 17 35 0 0 0 0 0 0 0 0 0 0 0 0 0 0 0 0 105 262 391 348 129 90 102 248 509 822 722 1434 1797 1770 1594
0 0 0 0 0 0 1 7 16 0 12 62 0 2 15 0 0 0 0 0 0 0 0 0 0 0 0 0 0 4 262 348 279 97 5 0 0 141 664 809 1004 1433 1393
0 0 0 0 0 0 0 0 0 80 31 13 0 20 22 11 0 0 0 0 0 0 0 0 0 0 0 0 0 0 0 120 150 81 6 0 0 0 347 540 683 794 689
0 0 0 0 0 0 0 0 0 0 0 16 32 46 48 29 2 0 0 0 0 0 0 0 0 0 0 0 0 0 2 4 59 48 3 0 0 11 90 231 431 550 619
0 13 35 11 0 0 0 31 30 77 46 30 88 56 68 39 7 0 0 0 0 0 0 0 0 0 0 0 0 0 0 4 16 27 0 0 0 0 5 4 71 340 485
0 0 0 0 0 0 0 0 22 58 92 56 74 49 33 40 32 19 0 0 0 0 0 0 0 0 0 0 0 0 0 0 12 50 2 0 0 0 0 0 0 29 207
0 0 0 0 0 0 0 0 4 43 108 90 84 71 42 75 45 41 8 0 0 0 0 0 0 0 0 0 0 1 0 0 1 1 32 0 0 0 0 0 0 0 22
0 0 0 0 1 0 0 20 67 163 144 60 28 40 69 126 85 39 31 16 11 0 0 0 0 0 0 0 0 3 0 0 0 8 53 0 0 0 0 0 0 0 0
11 6 0 0 0 0 7 147 123 48 38 22 25 60 69 69 100 72 65 26 0 0 0 0 0 0 0 1 0 4 10 1 0 0 0 13 12 0 0 0 0 0 0
59 10 13 51 57 1 79 56 38 26 22 3 0 0 16 64 100 109 98 76 56 8 0 14 1 0 0 3 12 5 9 7 3 0 0 5 31 0 0 0 0 0 0
68 103 76 111 21 65 57 77 55 30 21 5 1 0 1 17 55 66 50 19 23 23 34 7 0 6 10 12 23 10 11 8 6 1 0 4 155 47 12 0 0 0 0
211 311 293 128 175 98 112 198 104 35 22 2 1 0 0 0 9 9 0 0 0 0 0 0 0 1 1 8 12 7 3 6 4 5 11 5 27 92 106 98 44 48 33
343 346 307 21 93 189 54 143 63 9 2 0 0 3 0 0 0 0 0 0 0 0 0 0 0 0 3 0 8 6 17 10 4 2 4 8 8 101 118 93 94 48 0
512 471 332 170 86 71 90 22 32 0 1 0 0 0 0 0 0 0 0 0 0 0 0 0 0 0 1 1 0 9 4 4 3 5 0 9 69 129 67 115 203 109 32

GFSMA_con_mlcape_003.txt.gz
CAPE
815 516 792 675 617 707 716 699 698 625 447 431 464 503 439 424 536 506 268 965 1069 1008 774 1448 1775 1183 938 812 849 681 609 389 427 529 598 308 246 350 246 165 235 311 344
952 885 712 626 580 506 570 663 581 410 185 183 192 258 236 293 375 359 337 338 1084 839 963 796 1390 1491 1071 826 852 688 756 750 551 475 481 483 549 579 280 260 291 444 766
1220 1020 882 582 541 387 387 356 280 95 160 121 75 80 74 49 69 223 342 305 537 879 987 1000 808 1001 1390 1226 1043 896 828 754 1064 865 526 492 482 358 374 404 517 753 758
992 888 628 592 540 439 421 383 240 194 123 53 44 21 41 97 75 76 258 391 514 778 1008 1032 1003 764 974 1601 1276 1278 1148 1015 877 1017 972 611 494 450 672 868 816 775 752
840 801 508 502 442 487 436 322 231 229 114 35 26 21 54 75 60 95 34 76 147 397 723 990 934 898 889 1050 1661 1374 1434 1322 1070 1241 1266 1093 780 553 524 356 384 499 667
771 718 790 588 586 540 395 341 323 231 182 144 162 31 13 17 18 28 4 57 94 184 292 665 814 754 747 797 838 951 1554 1567 1559 1478 1142 1149 1329 1118 895 700 474 350 237
853 743 627 371 416 422 361 350 270 287 280 280 124 0 0 0 0 0 0 41 94 330 420 554 690 594 666 671 625 723 819 1488 1465 1630 1543 1179 990 1215 1142 945 557 575 474
769 632 392 331 534 344 151 137 138 137 230 362 174 19 0 0 0 0 0 6 0 0 93 198 336 421 576 590 604 562 588 738 805 1268 1430 1469 1450 1352 1284 1063 744 596 483
925 537 189 214 52 22 43 33 158 204 206 294 268 154 2 0 0 0 0 0 0 0 0 0 23 106 262 408 500 547 424 456 555 751 816 1156 1403 1531 1270 1055 924 849 667
178 2 0 0 20 34 15 16 284 248 139 52 80 204 140 128 0 0 0 0 0 0 0 0 0 0 0 79 132 281 528 537 393 306 514 788 991 1346 1535 1365 1039 764 533
0 0 0 6 29 0 0 7 0 33 43 49 20 1 4 0 0 0 0 0 0 0 0 0 0 0 0 0 0 67 145 174 52 73 248 367 763 1081 1323 1437 1379 1057 721
0 0 0 14 0 0 0 0 0 0 0 44 10 0 0 0 0 0 0 0 0 0 0 0 0 0 0 0 0 0 35 251 322 285 140 92 340 731 1079 1373 1452 1438 1260
0 0 0 0 0 0 0 0 0 0 0 0 0 0 0 0 0 0 0 0 0 0 0 0 0 0 0 0 0 0 0 0 0 187 291 198 261 407 487 808 1261 1387 1375
0 0 0 0 0 0 0 0 0 0 0 0 0 0 0 0 0 0 0 0 0 0 0 0 0 0 0 0 0 0 0 0 0 0 15 132 111 81 169 459 605 1009 1393
0 0 0 0 0 0 0 0 0 0 0 0 0 0 29 21 0 0 0 0 0 0 0 0 0 0 0 0 0 0 0 0 0 0 0 0 23 38 1 8 52 332 673
0 0 0 0 0 0 0 0 0 0 0 0 3 8 43 55 11 0 0 0 0 0 0 0 0 0 0 0 0 0 0 0 0 0 0 0 0 0 0 0 0 0 277
0 0 0 0 0 0 0 0 0 0 0 28 35 43 22 31 34 8 0 0 0 0 0 0 0 0 0 0 0 0 0 0 0 0 0 0 0 0 0 0 0 0 112
0 0 0 0 0 0 0 0 0 0 0 0 32 28 17 42 1 26 22 2 0 0 0 0 0 0 0 0 0 0 0 0 0 0 0 0 0 0 0 0 0 0 0
0 0 0 0 0 0 0 0 0 0 2 35 39 45 29 35 0 28 41 24 18 0 0 0 0 0 0 0 0 0 0 0 0 0 0 1 3 0 0 0 0 0 0
0 0 0 0 0 0 0 0 0 1 38 60 45 48 18 29 23 9 18 15 13 7 0 0 0 0 0 0 0 0 0 0 0 0 0 0 0 0 0 0 0 0 0
6 0 0 0 0 0 0 0 8 58 54 26 19 10 0 2 3 15 8 0 12 14 7 0 0 0 0 0 0 0 0 5 1 4 1 0 0 0 1 0 0 0 0
2 5 6 0 0 0 2 6 33 38 36 5 0 0 0 0 0 5 57 97 72 30 4 0 0 0 0 0 0 3 1 5 5 4 2 0 10 7 3 47 0 0 0
5 3 22 28 0 0 0 3 22 9 23 8 0 0 0 0 0 0 16 42 53 49 43 6 0 0 0 0 2 1 4 7 5 3 14 7 1 0 0 43 21 0 0
45 48 28 51 53 26 8 22 31 32 20 2 0 0 0 0 0 0 18 1 0 0 0 0 0 0 0 0 0 1 4 5 4 6 5 7 2 2 2 20 53 7 0
177 207 150 139 163 35 30 69 26 29 0 0 0 0 0 0 0 1 0 0 0 0 0 0 0 0 0 0 0 2 8 5 6 3 5 4 1 1 2 0 191 56 5
236 300 298 191 84 108 131 9 0 0 0 0 0 0 0 0 0 0 0 0 0 0 0 0 0 0 0 0 0 3 3 6 7 4 1 3 2 5 7 6 188 121 1

GFSMA_con_mlcape_006.txt.gz
CAPE
627 577 555 713 649 631 674 707 735 681 465 274 248 321 388 325 392 483 467 382 880 1103 1140 1217 985 1358 804 517 564 878 601 463 419 439 464 265 200 138 156 217 218 320 550
866 666 662 656 590 559 489 661 656 441 134 147 110 104 120 140 116 170 329 383 403 1004 1035 895 998 1044 1405 874 717 715 506 619 470 498 512 831 423 308 386 353 212 225 318
938 859 731 633 553 394 376 316 343 179 195 142 68 7 0 13 100 73 162 377 444 541 765 989 913 838 859 1313 1006 669 896 632 958 605 547 550 569 535 599 559 300 387 588
1194 1052 675 428 423 386 365 380 270 218 164 81 46 61 16 2 42 94 96 121 209 490 690 837 1034 847 795 898 1319 1210 946 802 578 661 993 834 488 532 499 362 491 525 515
903 815 586 474 445 431 443 306 217 187 62 62 88 142 30 42 41 49 36 61 74 138 229 392 622 863 734 1052 1179 1103 1058 1106 1154 823 667 1015 1001 748 574 419 596 749 724
757 644 591 548 509 433 297 184 181 143 123 138 149 58 30 28 4 0 29 141 168 325 361 375 529 681 740 682 616 740 824 764 1070 1156 1018 1003 1139 1234 1010 741 535 430 340
753 716 620 461 293 260 182 199 144 126 90 103 59 3 5 0 0 0 5 5 0 0 261 582 698 767 738 660 726 715 593 699 807 891 1193 1171 1139 1079 1104 1115 956 772 483
783 658 366 217 253 228 89 16 45 62 94 199 57 0 0 6 16 3 4 0 0 0 0 0 27 52 106 371 521 700 685 633 728 879 930 876 1051 1125 1105 967 1057 1044 863
739 590 359 98 75 7 2 2 1 48 126 135 97 27 0 0 0 4 3 0 0 0 0 0 0 0 5 28 56 160 260 444 644 592 581 857 862 821 1018 1305 1208 1080 967
737 344 0 0 0 0 15 1 53 106 88 11 17 78 15 61 0 0 0 0 0 0 0 0 0 0 0 0 0 0 31 193 285 348 588 716 529 713 853 958 1257 1289 1099
234 0 0 0 0 10 0 0 0 3 12 4 0 0 0 0 0 0 0 0 0 0 0 0 0 0 0 0 0 0 0 0 0 41 331 441 393 662 766 1064 1324 1252 1363
0 0 0 0 0 0 0 0 0 0 0 0 13 0 0 0 0 0 0 0 0 0 0 0 0 0 0 0 0 0 0 0 0 0 0 3 327 515 511 768 1014 1314 1394
0 0 0 0 0 0 0 0 0 0 0 0 0 0 0 0 0 0 0 0 0 0 0 0 0 0 0 0 0 0 0 0 0 0 0 0 0 45 380 615 825 944 1201
0 0 0 0 0 0 0 0 0 0 0 0 0 0 0 0 0 0 0 0 0 0 0 0 0 0 0 0 0 0 0 0 0 0 0 0 0 0 2 118 367 660 719
0 0 0 0 0 0 0 0 0 0 0 0 0 0 0 0 3 0 0 0 0 0 0 0 0 0 0 0 0 0 0 0 0 0 0 0 0 0 0 0 10 104 280
0 0 0 0 0 0 0 0 0 0 0 0 0 0 0 34 45 6 0 0 0 0 0 0 0 0 0 0 0 0 0 0 0 0 0 0 0 0 0 0 0 0 14
0 0 0 0 0 0 0 0 0 0 0 0 0 18 19 33 37 22 0 0 0 0 0 0 0 0 0 0 0 0 0 0 0 0 0 0 0 0 0 0 1 0 0
0 0 0 0 0 0 0 0 0 0 0 0 0 30 42 45 27 33 25 14 0 0 0 0 0 0 0 0 0 0 0 0 0 0 0 0 0 0 0 0 0 0 0
0 0 0 0 0 0 0 0 0 0 0 0 7 29 24 37 0 0 0 0 13 22 2 0 0 0 0 0 0 0 0 0 0 0 0 0 0 0 0 0 0 0 0
0 0 0 0 0 0 0 0 0 0 0 0 15 25 5 0 0 0 0 0 0 6 21 6 0 0 0 0 0 0 0 0 0 0 0 0 0 0 0 0 0 0 0
0 0 0 0 0 0 0 0 0 0 0 10 17 6 0 0 0 0 0 0 0 0 17 0 0 0 0 0 0 0 0 0 0 0 0 0 0 0 0 0 0 0 0
7 2 0 0 0 0 0 0 0 0 2 12 0 0 0 0 0 0 3 9 10 0 14 2 0 0 0 0 0 0 0 0 2 0 0 0 5 4 3 0 0 8 0
61 1 0 0 0 1 0 3 5 4 2 5 0 0 0 0 0 0 0 1 21 35 40 3 0 0 0 0 0 2 1 1 3 0 2 3 1 2 6 1 0 0 0
2 5 12 27 2 33 46 19 42 27 8 0 0 0 0 0 0 0 0 1 0 0 0 0 0 0 0 1 4 3 2 3 3 5 9 5 6 3 5 3 0 0 0
28 48 59 70 64 93 113 90 18 40 7 0 0 0 0 0 0 0 0 0 0 0 0 0 0 0 0 0 0 3 0 3 9 6 5 6 3 3 5 3 3 0 0
23 68 91 25 55 66 108 8 19 11 6 0 0 0 0 0 0 0 0 0 0 0 0 0 0 0 1 0 0 0 2 5 6 3 2 4 4 3 6 0 0 0 0

GFSMA_con_mlcape_009.txt.gz
CAPE
1160 1215 1080 1257 1357 1231 1258 1310 1330 1272 1083 697 743 697 603 683 718 619 856 802 665 984 1256 1133 1151 1158 953 555 1077 1033 588 536 389 905 627 805 591 158 91 278 409 399 391
909 841 1040 1063 1237 1179 1080 1163 1181 937 696 746 510 478 345 237 457 507 356 886 578 680 1121 1256 1159 1140 1183 1125 659 605 1250 895 634 505 558 609 522 353 288 180 295 262 374
1284 858 1054 855 1296 1105 987 952 985 774 613 406 338 207 227 254 130 426 460 482 794 795 797 953 978 943 951 1323 1222 768 774 607 858 619 505 432 779 676 329 439 623 403 303
966 997 832 673 872 1059 930 969 910 741 583 352 247 215 300 225 332 323 319 389 287 438 706 833 887 1041 990 900 1234 1176 890 907 693 913 949 740 613 546 442 429 576 579 521
1246 1132 933 719 1024 1050 939 950 735 617 243 148 119 182 238 214 293 205 422 600 609 589 368 565 457 646 1006 1235 1220 952 954 901 807 829 801 964 814 932 791 564 554 480 711
1047 1151 967 984 1108 1156 916 643 625 548 316 330 203 182 216 204 133 228 408 355 101 752 1051 1175 1178 1230 861 991 872 759 854 771 859 954 887 976 1146 1115 1095 954 814 561 608
1108 1109 770 923 1008 775 745 768 519 319 180 416 330 18 108 152 115 117 223 66 0 7 170 533 963 1048 1144 826 880 901 770 882 735 745 762 827 994 1054 1145 1121 1072 1003 833
1381 1327 1204 887 712 560 585 313 369 169 220 485 216 79 0 80 159 121 33 0 0 0 0 70 96 226 398 558 487 432 552 667 1016 1205 965 815 781 835 970 1111 1218 962 909
1426 1372 1012 722 544 171 7 266 225 329 196 334 350 123 0 1 0 81 101 0 0 0 0 0 0 16 0 0 5 51 50 179 402 667 873 1144 1076 812 765 803 935 1138 1068
1377 1207 924 136 160 37 174 196 117 340 292 64 146 302 172 141 1 0 0 0 0 0 0 0 0 0 0 0 0 0 0 0 0 6 114 545 757 895 1084 874 767 889 1113
1378 971 315 7 16 86 246 44 216 104 183 70 78 76 42 5 0 0 0 0 0 0 0 0 0 0 0 0 0 0 0 0 0 0 0 0 7 363 821 835 1213 1119 982
803 434 0 0 116 222 171 16 78 46 83 160 197 7 0 0 0 0 0 0 0 0 0 0 0 0 0 0 0 0 0 0 0 0 0 0 0 0 81 582 865 961 1430
590 73 0 0 81 198 37 12 15 59 13 40 160 9 14 0 0 0 0 0 0 0 0 0 0 0 0 0 0 0 0 0 0 0 0 0 0 0 0 0 152 685 972
347 0 0 0 86 5 0 0 18 32 33 0 63 83 28 38 67 73 32 4 0 0 0 0 0 0 0 0 0 0 0 0 0 0 0 0 0 0 0 0 0 17 195
114 24 0 16 6 0 0 3 0 0 10 48 71 145 72 34 57 95 91 41 9 4 2 0 0 0 0 0 0 0 0 0 0 0 0 0 0 0 0 0 0 0 0
19 17 1 4 0 0 0 0 0 0 0 0 12 109 108 65 98 127 97 68 26 17 1 1 0 0 0 0 0 0 0 0 0 0 0 0 0 0 0 0 0 0 0
39 7 0 0 0 0 0 0 0 0 0 0 110 34 96 87 70 96 98 81 77 56 55 0 0 4 0 0 0 0 0 0 0 0 0 0 0 0 0 0 0 0 0
12 1 0 0 0 0 0 0 0 0 0 1 36 107 105 161 185 136 89 87 62 69 62 36 0 0 6 0 2 5 0 0 0 0 0 0 0 0 0 0 0 0 0
8 9 25 1 0 1 22 83 7 0 5 22 31 51 98 225 94 58 88 61 42 51 56 79 24 0 0 5 2 8 2 0 0 0 0 0 0 0 0 0 0 0 0
52 60 18 6 13 25 21 0 0 0 0 7 31 98 155 17 26 37 48 69 63 49 40 52 25 7 6 6 11 14 7 6 2 0 0 0 0 0 0 0 0 0 0
20 8 0 0 0 2 0 0 0 3 39 49 33 146 153 55 13 3 2 5 50 59 28 27 28 14 10 14 14 15 10 6 0 2 0 0 0 0 0 0 0 0 0
0 0 0 6 11 9 0 0 0 60 171 194 70 143 98 4 0 0 0 0 0 9 50 38 46 24 9 11 13 10 0 0 0 0 5 4 2 0 0 1 1 0 0
0 0 0 2 19 46 0 0 0 30 134 134 142 129 60 32 0 0 0 0 5 0 11 60 47 11 7 1 2 2 0 3 3 6 8 1 5 1 0 0 2 1 0
0 0 6 4 72 110 21 8 0 73 148 197 167 123 78 79 71 0 0 0 20 15 6 3 0 0 0 0 0 5 2 2 2 2 25 17 2 0 0 5 10 4 0
0 3 69 34 67 87 12 6 33 77 87 91 198 79 19 4 0 0 0 0 0 0 0 0 0 0 0 0 0 4 2 5 3 7 0 0 0 3 6 6 9 6 0
0 28 11 97 158 215 43 59 21 55 60 60 76 9 0 0 0 0 0 0 0 8 0 0 0 0 0 0 0 2 2 4 4 1 0 0 2 5 6 3 1 2 4

GFSMA_con_mlcape_012.txt.gz
CAPE
1290 1123 1327 1319 1258 1369 1290 1277 1331 1333 1325 1010 969 798 474 446 560 335 370 955 700 748 1440 1457 1172 1379 1195 977 1393 1127 944 592 404 409 473 700 802 591 431 374 355 746 705
1348 1266 1179 1092 1327 1387 1249 1283 1283 1225 1143 1047 668 414 194 51 44 245 137 348 812 572 1139 1602 1506 1381 1458 1379 843 1403 1295 943 799 630 833 1047 875 779 401 158 282 416 433
1472 1174 1040 1076 1130 1284 1519 1419 1353 1179 1007 689 436 239 66 42 21 103 112 60 293 939 674 972 1231 1237 1269 1498 1349 990 676 1433 1371 1114 706 587 689 763 782 557 340 424 573
1419 1316 1236 1142 1025 1156 1235 1110 1104 983 468 166 6 0 5 36 141 84 57 161 42 11 811 817 877 1055 1241 1288 1447 1235 1120 831 907 941 1042 800 682 752 843 897 739 693 620
1357 1399 1244 1109 1291 1199 1042 1150 657 370 9 0 0 0 36 95 123 25 201 450 580 412 146 841 557 653 1077 1425 1365 1261 1182 917 958 777 1040 1075 980 738 611 697 585 461 450
1353 1292 1161 1121 1265 1149 1126 577 395 129 21 3 0 12 77 88 76 164 255 198 231 600 796 1051 846 1085 918 971 1201 1314 1215 980 920 834 789 831 952 1184 1090 952 1034 822 531
1473 1603 1241 1166 1265 1044 690 408 86 2 0 16 9 10 46 104 79 68 115 0 0 59 504 1060 949 958 1363 832 808 1003 1123 1268 1147 1124 963 821 771 842 967 1179 1296 1185 1044
1726 1482 1399 1319 1238 460 498 65 5 0 2 68 10 6 5 42 38 50 12 0 0 0 9 219 619 942 950 922 567 390 407 604 923 1209 1378 1360 1072 893 841 850 917 1032 1223
1911 1841 1639 1023 931 173 0 32 44 7 7 72 103 2 3 9 4 34 55 0 0 0 0 0 13 0 0 6 40 5 0 0 6 156 527 823 1018 1115 1120 933 797 851 945
1439 1346 1302 963 148 0 0 74 21 42 82 4 5 14 63 60 13 19 18 0 0 0 0 0 0 0 0 0 0 0 0 0 0 0 0 0 52 380 891 1013 1071 1084 913
999 768 1119 284 37 0 121 152 69 87 21 4 6 15 2 2 0 0 0 6 0 0 0 0 0 0 0 0 0 0 0 0 0 0 0 0 0 0 20 345 915 848 930
774 778 1020 141 33 14 172 145 56 49 53 49 22 6 1 3 6 0 1 4 5 3 0 0 0 0 0 0 0 0 0 0 0 0 0 0 0 0 0 0 37 431 885
213 563 1081 160 23 297 259 91 53 34 62 21 28 13 14 10 16 17 14 7 6 11 6 3 0 0 0 0 0 0 0 0 0 0 0 0 0 0 0 0 0 0 77
98 227 744 112 86 207 270 1 2 7 25 21 27 28 5 9 20 21 19 21 11 13 36 31 23 0 0 0 0 0 0 0 0 0 0 0 0 0 0 0 0 0 0
119 368 303 137 64 275 32 1 0 31 18 29 14 21 14 6 13 23 23 27 26 13 14 23 21 15 3 5 0 0 0 0 0 0 0 0 0 0 0 0 0 0 0
346 324 310 26 101 73 12 34 0 7 10 0 0 1 5 7 25 46 57 54 32 23 2 3 0 5 27 6 34 1 2 0 0 0 0 0 0 0 0 0 0 0 0
576 457 432 92 174 24 22 56 20 0 1 0 0 5 69 116 44 23 35 36 36 20 11 0 0 0 2 42 52 66 32 18 6 0 0 0 0 0 0 0 0 0 0
380 571 428 216 160 66 21 66 6 0 0 0 0 26 92 73 96 101 85 54 34 8 36 20 0 0 11 8 27 44 40 38 29 7 0 0 0 0 0 0 0 0 0
314 176 114 85 177 134 61 47 62 30 8 0 3 62 89 152 103 49 74 46 34 31 44 39 42 32 6 10 32 57 42 23 18 11 2 0 0 0 0 0 0 0 0
24 0 27 33 67 142 97 74 107 86 5 0 42 143 172 216 62 84 43 66 91 65 76 42 63 34 32 28 34 30 30 24 10 16 8 0 0 0 0 0 0 0 0
1 0 1 0 1 67 25 136 110 10 6 42 119 192 229 376 231 66 17 27 61 26 82 45 38 22 26 30 43 32 27 19 16 21 11 0 0 0 0 0 0 0 0
0 0 0 0 0 0 0 3 3 27 36 129 237 291 309 239 172 21 0 0 0 0 21 31 16 14 19 30 28 39 29 17 5 0 0 2 1 3 2 1 0 0 0
6 0 0 0 0 0 0 0 0 6 35 146 310 530 396 216 138 145 95 3 0 0 0 21 31 55 29 13 14 14 9 1 0 1 3 4 9 12 10 2 1 0 0
5 0 0 0 0 0 0 0 0 0 68 280 523 593 320 249 308 206 159 71 33 62 63 37 39 35 33 0 0 0 0 3 1 2 12 29 25 16 10 5 1 0 0
23 0 0 21 7 8 20 32 43 77 134 455 633 303 279 207 154 2 0 17 13 2 1 0 0 0 0 0 0 1 0 6 4 1 0 28 24 23 8 0 0 0 0
95 5 44 43 189 126 28 65 44 136 271 205 139 309 72 50 3 0 0 0 0 1 13 0 0 1 0 0 1 3 4 16 32 14 3 29 25 2 1 2 3 6 5

GFSMA_con_mlcape_015.txt.gz
CAPE
1157 1319 1172 1339 1480 1145 1147 1115 1086 1328 1022 1003 855 747 530 285 261 115 340 929 763 638 1649 1697 1716 1580 1645 1074 1500 1318 1250 704 406 477 716 355 571 668 893 628 359 435 761
1326 1688 1402 1106 1126 1322 1311 1243 1348 1428 1361 1091 686 479 103 51 6 12 24 837 719 706 1013 1740 1688 1520 1591 1574 1261 1544 1431 1117 713 470 428 609 800 990 789 400 176 296 459
1436 1764 1160 1264 1108 1293 1803 1507 1229 1440 1289 978 90 19 1 8 6 55 51 24 671 819 809 1165 1464 1346 1497 1662 1679 1190 1488 1529 1171 1043 909 779 1103 1011 828 610 417 317 318
1899 1759 1288 1108 1176 1248 1273 1291 1169 1029 470 36 2 1 0 9 64 83 30 83 59 150 1007 946 970 1033 1034 1273 1621 1605 1252 990 1291 1394 1264 1108 759 753 660 646 878 811 514
1711 1608 1255 1318 1596 1351 1386 1399 1140 477 6 0 0 0 14 46 35 46 19 129 336 292 255 871 919 888 1180 1525 1538 1478 1404 1243 1102 903 1018 1274 1067 928 892 779 656 895 721
1698 1779 1268 1492 1527 1252 1304 875 493 104 4 1 0 0 22 75 45 59 93 75 89 384 594 595 1025 869 961 1214 1322 1324 1299 1168 1007 767 753 867 1023 1023 1105 1027 857 730 908
1822 1632 1641 1260 1576 1154 993 400 167 0 0 35 0 39 31 32 119 48 60 2 0 44 292 561 985 1333 1303 963 1047 1137 1184 1134 1118 919 857 830 797 930 968 959 981 1064 1176
1990 1540 1580 1191 1358 830 812 253 4 0 2 106 19 2 19 29 19 40 27 2 0 1 19 260 563 989 949 984 589 236 335 633 977 1067 1038 1223 1184 1039 965 922 900 886 939
1550 1693 1726 1652 1397 634 10 91 32 5 3 15 22 9 17 58 3 18 26 0 0 0 0 0 14 0 58 108 365 0 0 0 0 47 173 385 656 971 1108 1161 1136 954 847
970 1488 1362 823 801 52 22 27 16 46 2 8 1 0 14 13 10 27 7 0 0 0 0 0 0 0 0 0 0 0 0 0 0 0 0 0 0 34 271 687 1069 1078 1108
765 697 624 846 417 0 20 227 36 76 110 0 3 13 16 4 0 0 3 19 16 0 0 0 0 0 0 0 0 0 0 0 0 0 0 0 0 0 0 0 133 551 1036
718 598 653 657 54 2 188 95 73 62 51 85 41 5 2 5 15 9 3 9 23 10 11 0 1 0 0 0 0 0 0 0 0 0 0 0 0 0 0 0 0 0 81
479 824 786 731 54 181 278 190 178 92 39 21 2 32 14 9 14 5 6 7 10 14 34 12 15 1 0 0 0 0 0 0 0 0 0 0 0 0 0 0 0 0 0
380 1090 1056 714 137 273 304 289 54 2 23 1 4 0 1 13 15 24 28 20 23 34 55 69 70 33 2 0 0 0 0 0 0 0 0 0 0 0 0 0 0 0 0
243 362 1105 537 200 139 342 187 19 100 68 58 10 6 0 1 8 17 30 44 32 12 12 68 83 59 35 27 25 0 0 2 0 0 0 0 0 0 0 0 0 0 0
406 602 714 425 201 185 332 121 28 61 81 31 3 0 0 0 4 21 26 39 45 35 29 24 32 43 36 25 57 49 25 6 0 0 0 0 0 0 0 0 0 0 0
1043 544 870 432 120 301 153 170 136 102 155 95 27 0 0 2 3 9 17 20 10 10 14 5 6 21 40 33 41 65 74 61 44 19 8 0 0 0 0 0 0 0 0
1351 944 838 520 228 231 102 121 193 89 4 4 1 0 16 11 154 210 21 39 17 10 4 1 0 0 6 9 40 55 30 31 35 15 0 0 0 0 0 0 0 0 0
1812 922 811 456 295 79 49 64 71 221 92 12 10 26 57 73 142 100 159 56 16 40 57 25 24 14 4 20 23 21 72 57 62 26 20 9 6 0 0 0 0 0 0
1879 771 841 543 244 50 15 11 4 108 176 115 78 112 110 139 245 243 218 200 160 73 54 40 44 36 25 55 83 38 23 23 26 36 14 8 6 4 0 0 0 0 0
1891 968 626 448 129 0 0 0 0 73 273 207 40 135 226 228 176 281 242 163 138 64 35 27 26 23 38 61 55 52 27 16 19 31 9 10 1 0 0 4 1 0 0
1840 1079 629 200 0 0 0 0 0 11 61 117 131 229 373 329 190 134 118 64 7 3 52 64 0 0 23 15 38 16 26 6 3 26 0 0 0 1 24 58 28 8 0
1614 944 520 267 7 0 0 0 0 15 117 92 153 423 483 325 228 299 243 60 19 9 0 0 13 67 64 76 56 12 2 0 0 0 0 0 0 6 42 135 29 1 0
1312 1023 546 170 3 14 1 0 0 0 16 12 136 356 418 610 444 188 152 80 164 242 102 34 55 146 64 14 22 4 0 0 0 3 13 21 2 11 23 64 6 0 0
1306 920 531 103 24 225 0 0 0 0 6 33 112 374 717 481 165 48 35 28 128 136 122 0 7 0 0 0 0 0 0 8 10 16 19 14 40 38 24 5 0 0 0
1128 634 366 125 40 112 109 0 0 11 16 38 89 134 210 87 54 40 16 34 74 96 37 56 54 4 2 2 1 1 20 30 28 23 10 10 0 2 5 3 0 0 0

GFSMA_con_mlcape_021.txt.gz
CAPE
805 578 1232 1053 1129 932 1153 963 1351 924 835 1063 809 284 54 0 148 736 703 691 685 1018 1253 1794 1172 1542 1635 1072 1405 1312 943 602 816 1139 1146 927 775 369 672 842 874 710 593
949 1196 1256 938 926 1247 1439 1211 970 691 635 1006 1021 727 190 6 7 49 577 616 608 459 1022 1282 1701 1570 1709 1536 1414 1511 1384 944 551 573 1211 1066 785 757 696 819 710 477 320
1131 1116 1210 882 1458 1255 1451 1378 919 936 1022 713 781 243 7 3 9 10 95 494 640 484 448 991 1113 1055 1446 1225 1407 1488 1574 1511 1057 591 465 702 708 710 899 1059 847 356 178
1437 1088 1242 1439 1150 1130 975 876 650 600 708 179 0 0 0 0 23 17 9 76 501 576 572 557 848 805 655 1163 1270 1308 1112 1340 1274 1122 719 604 558 857 953 956 804 624 600
1479 1158 926 1221 1349 1192 1115 915 639 397 4 0 0 0 0 27 16 34 18 14 100 467 707 518 414 682 1066 1472 1130 1112 1191 1003 1389 1252 1177 1209 1163 1082 918 827 806 728 610
1447 1140 984 1463 1202 1017 842 517 392 121 0 0 0 0 1 8 1 87 21 21 15 362 958 769 598 773 965 1555 1638 1406 1064 887 980 1002 938 1045 1044 1045 1056 1141 991 736 645
1594 1376 1126 1062 1316 762 744 307 104 0 0 0 0 9 21 36 26 14 1 3 0 497 602 848 956 837 654 656 1058 1256 1120 1012 907 828 742 752 767 812 808 828 856 1030 996
1531 1051 852 1063 1023 1132 800 149 3 0 0 51 0 0 22 23 37 11 2 2 0 10 268 229 262 417 584 333 187 313 484 675 907 943 981 857 777 781 778 691 617 578 772
1345 1184 1069 972 1230 977 472 49 0 0 0 49 0 0 33 28 48 15 4 0 0 0 0 0 0 118 418 1 0 0 0 0 0 15 58 103 140 231 326 506 802 770 746
1439 1465 1281 1211 868 198 144 1 18 6 5 1 12 0 0 0 7 41 3 0 1 0 0 0 0 0 64 0 0 0 0 0 0 0 0 0 0 0 0 0 21 188 571
1246 1419 1225 1231 604 98 118 20 0 0 29 3 0 47 0 0 0 0 8 10 10 0 0 0 0 0 0 0 0 0 0 0 0 0 0 0 0 0 0 0 0 0 0
917 1481 1239 1004 433 17 82 50 39 5 3 24 0 0 0 0 0 0 0 0 0 7 1 1 0 0 0 0 0 0 0 0 0 0 0 0 0 0 0 0 0 0 0
668 1005 975 562 394 0 100 74 29 27 10 37 3 0 1 0 0 0 0 0 0 3 8 23 2 2 1 0 0 0 0 0 0 0 0 0 0 0 0 0 0 0 0
670 787 732 467 339 0 483 212 167 83 61 8 1 24 0 0 0 0 0 0 0 0 0 7 11 34 8 0 0 0 0 0 0 0 0 0 0 0 0 0 0 0 0
469 698 813 485 305 49 129 338 191 38 151 44 5 8 0 0 0 0 0 0 0 0 0 0 6 15 14 13 0 0 0 0 0 0 0 0 0 0 0 0 0 0 0
989 791 781 614 418 143 27 359 235 101 55 160 66 28 18 4 12 0 0 0 0 0 0 0 0 0 0 0 5 1 0 4 0 0 0 0 0 0 0 0 0 0 0
596 803 890 737 487 367 194 294 271 55 124 40 178 38 69 30 29 1 1 0 0 0 0 0 0 0 3 0 0 0 0 0 0 0 0 0 3 6 5 6 5 0 0
1274 952 882 857 621 292 256 381 276 93 54 245 25 72 29 72 17 0 0 0 3 1 0 0 0 4 9 0 0 0 0 10 0 13 3 1 8 0 0 0 0 0 0
1458 1212 1093 844 696 495 245 285 265 156 96 159 166 99 3 3 7 16 61 35 124 64 27 5 0 0 2 0 0 1 0 0 5 6 2 0 0 1 0 0 0 0 0
1906 1386 1106 871 665 497 395 343 299 227 33 113 139 268 129 32 4 91 130 185 70 44 46 47 41 14 3 6 2 0 0 0 0 5 5 0 0 0 0 0 0 0 0
2578 1915 1351 936 708 447 434 348 272 234 27 0 83 155 60 26 47 157 244 143 124 63 26 25 28 0 0 0 2 0 0 0 0 0 0 0 0 0 0 0 0 0 0
2717 2370 1746 1327 1006 692 505 421 342 275 151 69 14 108 114 98 108 161 218 36 37 18 10 25 11 0 0 0 8 0 0 0 0 0 0 0 0 0 0 0 0 0 0
3006 2911 2394 1711 1355 1034 692 462 401 298 238 113 75 138 320 282 95 10 33 48 38 5 6 25 6 0 0 0 46 36 0 0 0 0 0 0 0 0 0 0 0 0 0
3123 3149 2880 2239 1704 1223 855 484 358 260 202 121 256 494 345 92 8 21 49 37 30 26 29 50 18 0 13 53 63 46 19 10 0 0 0 0 0 0 0 0 0 0 0
3194 3275 2980 2455 1982 1297 764 422 194 103 41 38 201 223 2 6 0 75 53 12 28 28 82 45 42 91 73 38 89 39 12 11 1 0 0 0 0 0 0 0 0 0 0
3302 3224 2813 2346 1843 1303 556 264 30 2 0 0 28 8 0 0 0 51 35 9 44 78 74 51 26 31 1 0 0 5 12 9 7 0 0 0 0 0 0 0 0 0 0

GFSMA_con_mlcape_024.txt.gz
CAPE
563 574 878 979 927 785 980 880 1120 966 749 998 513 163 57 325 701 575 170 431 691 883 1033 1072 1156 1305 1160 1311 1411 1166 884 609 665 637 950 1019 615 386 458 549 547 599 539
638 583 939 957 1157 1193 1106 1107 904 673 746 879 1147 465 153 31 569 508 433 694 483 449 805 892 1163 1157 1684 1261 1548 1507 1324 901 682 1121 1060 997 894 490 548 796 926 800 407
902 1157 1013 756 1143 1134 1356 1003 785 554 867 315 74 27 28 1 24 111 369 485 522 475 325 894 990 942 1134 1191 1368 1726 1703 1372 952 656 563 1159 1019 689 700 692 925 720 397
897 949 882 1062 992 972 858 689 589 429 26 0 0 0 1 4 23 21 61 124 552 458 478 332 959 856 648 970 1013 1168 1527 1521 1357 1172 685 338 574 570 519 748 887 862 659
1222 990 875 931 1065 992 897 781 435 196 3 0 0 0 2 19 23 22 23 20 259 458 473 374 319 596 1013 1307 1046 946 854 889 1301 1130 1027 889 668 548 769 866 827 689 483
1299 1095 699 922 1120 932 867 419 264 124 0 0 0 0 7 5 19 4 22 17 199 476 758 492 512 700 746 1456 1405 1235 1157 888 909 712 983 1057 1137 1032 905 820 796 725 682
1258 1117 786 1086 998 796 526 228 44 0 0 0 0 0 17 14 18 24 7 23 250 490 725 630 817 877 742 561 914 1079 1124 917 885 766 770 754 692 701 621 637 699 805 956
1208 1108 948 912 890 895 768 180 0 0 0 0 0 0 3 3 12 3 0 29 85 339 296 210 184 313 251 246 272 497 642 784 780 799 776 678 558 563 595 596 633 654 673
1264 1331 917 752 827 882 550 73 0 0 0 0 0 0 0 0 21 0 0 1 4 10 17 1 0 143 134 0 0 0 0 0 44 32 20 9 2 0 35 104 267 462 734
1334 1127 882 577 607 773 311 26 0 0 0 0 0 0 0 0 0 0 0 0 0 0 0 0 0 47 4 0 0 0 0 0 0 0 0 0 0 0 0 0 0 0 14
1222 1066 1005 796 501 268 137 0 0 4 1 0 0 0 0 0 0 0 0 0 0 0 0 0 0 3 6 0 0 0 0 0 0 0 0 0 0 0 0 0 0 0 0
1224 1173 1088 934 454 43 0 0 0 0 22 2 8 25 0 0 0 0 0 0 0 0 0 0 0 0 2 0 0 0 0 0 0 0 0 0 0 0 0 0 0 0 0
1150 1161 1086 863 368 38 22 1 16 14 2 10 0 0 4 0 0 0 0 0 0 0 0 0 0 0 0 0 0 0 0 0 0 0 0 0 0 0 0 0 0 0 0
973 705 1065 768 482 108 36 22 6 8 2 1 15 4 1 2 0 0 0 0 0 0 0 0 0 0 0 0 0 0 0 0 0 0 0 0 0 0 0 0 0 0 0
740 794 840 685 368 117 54 56 48 31 22 1 0 10 4 1 0 0 0 0 0 0 0 0 0 0 0 0 0 0 0 0 0 0 0 0 0 0 0 0 0 0 0
709 622 638 429 264 147 111 100 89 59 16 10 4 8 2 0 0 0 0 0 0 0 0 0 0 0 0 0 0 0 0 0 0 0 3 11 4 0 5 17 12 4 3
615 487 526 405 289 204 83 90 71 148 81 0 72 40 8 1 3 2 2 0 1 2 1 13 0 0 0 0 0 0 0 0 0 0 3 17 10 13 18 10 0 0 0
671 447 503 585 454 292 183 21 42 129 125 0 0 97 88 14 25 19 4 13 3 0 0 3 19 3 8 7 0 4 2 0 0 3 2 13 5 0 0 0 0 0 0
1152 861 669 640 583 420 362 195 81 28 77 28 32 17 17 24 17 26 12 9 42 86 43 35 50 20 18 27 9 0 0 0 0 0 0 6 0 0 0 0 0 0 0
1544 1206 1005 843 659 464 366 428 289 96 109 102 1 80 97 31 10 8 8 43 78 46 37 35 22 23 10 14 10 2 0 0 0 0 0 0 0 0 0 0 0 0 0
1780 1478 1252 1085 848 623 463 376 357 190 107 159 80 73 132 129 162 57 13 37 27 0 16 18 7 4 0 6 2 1 1 0 0 0 0 0 0 0 0 0 0 0 0
2097 1723 1484 1311 1031 752 600 491 448 289 177 165 108 38 53 65 120 59 21 74 10 10 46 19 4 1 0 1 0 0 0 0 0 0 0 0 0 0 0 0 0 0 0
2048 2014 1780 1645 1334 1049 718 541 447 320 286 243 197 23 0 51 135 108 85 13 4 39 49 9 0 0 12 11 0 0 0 0 0 0 0 0 0 0 0 0 0 0 0
2452 2302 1997 1782 1727 1472 1063 651 517 372 312 310 244 149 0 20 212 141 18 3 15 34 45 24 4 1 11 5 0 26 16 0 0 0 0 1 0 0 0 0 0 0 0
2821 2699 2577 2184 1952 1764 1432 965 575 426 369 347 320 284 81 97 95 50 8 0 9 45 67 67 61 54 34 28 7 0 5 0 0 0 0 0 0 0 0 0 0 0 0
2790 2844 2820 2465 2287 2300 1482 1079 856 570 433 316 193 144 92 150 47 0 0 1 25 20 14 35 20 0 1 0 0 0 0 0 0 0 0 0 0 0 0 0 0 0 0

GFSMA_con_mlcape_027.txt.gz
CAPE
748 328 620 794 650 701 1029 849 927 950 525 756 609 95 101 55 173 361 91 556 680 1175 1471 1029 1223 1278 1521 1246 1622 1223 1361 916 1152 880 669 1111 833 442 355 525 531 467 559
908 439 571 960 947 1174 967 1112 971 655 660 726 839 715 139 63 210 535 310 182 275 248 1159 1141 1036 1230 1278 1457 1364 1463 1177 798 602 712 809 1098 1060 586 404 587 790 788 850
825 552 660 796 988 916 1197 1062 734 541 484 19 3 0 7 65 17 590 339 262 387 286 140 1102 988 914 808 1270 1461 1548 1575 1327 901 799 1209 971 857 1051 645 652 861 927 651
809 757 722 772 941 1084 1009 690 542 252 0 0 0 0 0 11 18 260 270 403 495 442 313 197 828 674 805 1095 1037 1310 1641 1070 1052 1130 841 635 1235 1252 899 706 730 673 888
860 909 880 966 924 796 860 762 355 134 0 0 0 0 6 9 16 16 57 52 206 444 279 325 240 523 949 1119 1141 1206 958 958 971 1004 1125 872 568 563 572 635 695 803 734
1034 1010 856 798 983 912 897 510 227 58 0 0 0 0 5 2 17 36 35 25 73 395 508 279 388 423 546 1208 1528 1413 1119 913 850 862 965 947 805 676 784 802 767 748 650
1011 1112 918 703 850 868 755 271 123 0 0 0 0 0 8 0 20 16 4 63 337 629 561 369 310 820 722 602 733 1122 1279 1097 929 835 687 809 757 744 746 747 704 696 711
1150 1076 904 836 871 787 417 170 0 0 0 0 0 0 0 0 0 0 11 129 133 303 330 361 432 508 346 423 618 828 936 985 783 742 689 710 702 679 686 646 673 699 716
998 1108 922 819 864 781 631 237 0 0 0 0 0 0 0 0 0 0 5 33 65 84 69 33 7 129 65 0 0 0 0 199 306 207 131 75 47 35 32 60 130 234 416
924 997 1025 917 740 762 563 152 4 0 0 0 0 0 0 0 0 0 0 1 0 4 0 0 0 41 9 0 0 0 0 0 0 0 0 0 0 0 0 0 0 0 0
1123 1169 1061 818 494 547 521 128 9 0 0 0 0 0 0 0 0 0 0 0 0 0 0 0 0 1 13 0 0 0 0 0 0 0 0 0 0 0 0 0 0 0 0
1230 1181 1120 740 450 362 320 87 10 0 0 0 0 0 0 0 0 0 0 0 0 0 0 0 0 0 14 3 0 0 0 0 0 0 0 0 0 0 0 0 0 0 0
1041 1254 1049 898 545 211 98 27 0 0 0 0 0 0 0 0 0 0 0 0 0 0 0 0 0 0 0 3 3 0 0 0 0 0 0 0 0 0 0 0 0 0 0
1044 1083 1048 994 608 202 80 0 0 0 0 0 0 0 1 0 0 0 0 0 0 0 0 0 0 0 0 0 0 0 0 0 0 0 0 0 0 0 0 0 0 0 0
997 880 1115 948 666 202 90 28 0 0 0 0 0 0 0 0 0 0 0 0 0 0 0 0 0 0 0 0 0 0 0 0 0 0 0 0 0 0 1 1 6 9 1
917 761 995 800 607 376 117 74 30 0 8 0 0 0 0 0 0 0 0 0 0 0 0 0 2 0 0 0 0 0 0 2 0 0 0 0 0 9 25 23 15 14 7
852 852 854 634 585 460 202 102 38 2 3 0 0 0 0 0 0 0 0 0 0 0 0 2 0 0 0 0 0 0 0 0 0 0 0 1 16 27 14 0 0 0 0
814 799 755 632 471 375 162 146 86 9 0 0 0 0 0 0 0 0 1 0 0 0 0 0 0 11 4 0 0 0 0 5 0 0 0 0 0 0 0 0 0 0 0
1042 741 709 643 444 291 220 162 157 102 2 8 0 0 0 12 3 0 0 0 0 0 6 2 9 8 13 10 19 5 0 0 0 0 0 0 0 0 0 0 0 0 0
1070 1009 774 733 501 312 266 252 194 138 46 41 27 6 0 0 4 0 0 2 0 0 19 6 4 7 5 5 0 0 0 0 4 0 0 0 0 0 0 0 0 0 0
1158 1148 1130 822 556 489 453 393 324 268 177 100 42 60 29 10 44 20 10 9 3 6 7 0 0 0 0 0 0 0 0 0 0 0 0 0 0 0 0 0 0 0 0
1325 1090 1137 1228 1017 788 555 406 471 434 299 253 169 98 93 37 100 83 37 80 21 13 5 0 0 0 17 0 1 4 0 0 0 0 0 0 0 0 0 0 0 0 0
1511 1242 1097 1110 1084 1077 843 679 486 479 437 356 199 175 116 101 38 9 1 45 14 18 0 2 9 8 2 0 0 1 0 0 0 1 0 0 0 0 0 0 0 0 0
1654 1746 1416 1208 1171 1195 1089 805 688 503 421 278 330 297 268 164 32 0 2 26 23 9 0 12 15 0 0 0 0 1 0 0 0 0 0 0 0 0 0 0 0 0 0
1894 1799 1664 1397 1283 1248 1072 986 868 642 495 411 333 262 225 205 46 1 23 35 9 0 5 21 30 41 13 17 0 0 0 0 0 0 0 0 0 0 0 0 0 0 0
2289 2092 1957 1704 1568 1568 1292 1167 933 825 944 805 566 494 333 251 84 1 58 10 0 2 0 22 6 8 0 0 0 0 0 0 0 0 0 0 0 0 0 0 0 0 0

GFSMA_con_mlcape_030.txt.gz
CAPE
628 526 503 605 645 620 781 977 1070 899 449 594 284 52 123 53 135 159 67 281 445 1158 1221 1335 1622 1390 1305 1248 1232 1297 1087 1042 1213 986 1072 1079 940 839 467 337 506 508 397
640 630 370 643 907 909 1087 1011 937 688 512 780 755 461 124 78 85 232 340 126 456 319 1043 1264 1148 1334 1344 1592 1372 1369 1534 1225 878 1400 736 949 1145 764 430 430 691 721 745
597 764 484 650 807 930 835 990 697 536 173 11 1 0 2 52 48 147 518 162 203 358 366 1158 930 947 1092 1395 1563 1539 1541 1237 855 585 676 1061 999 1132 919 465 670 927 888
500 714 587 600 782 800 887 732 549 242 0 0 0 0 0 8 4 26 320 313 404 398 288 209 844 597 787 1013 767 1492 1578 1112 1032 1151 818 999 1004 1035 1110 1070 693 563 575
575 709 671 751 739 784 711 702 376 108 0 0 0 0 3 17 18 39 55 163 206 507 292 175 231 426 831 1071 1093 790 848 858 873 578 1001 1090 872 818 1178 919 677 547 669
800 765 773 836 855 719 723 547 238 27 0 0 0 0 0 1 17 32 37 15 71 462 394 256 356 425 379 706 1378 1176 735 644 623 780 763 932 936 787 662 663 624 717 626
871 823 733 788 687 739 805 453 105 0 0 0 0 0 0 0 7 11 9 76 209 402 549 364 335 707 737 572 659 880 1074 1079 860 691 592 640 616 881 795 756 840 794 752
895 907 817 835 632 618 609 285 31 0 0 0 0 0 0 0 0 0 20 105 316 455 359 373 457 478 322 463 641 749 909 922 829 685 663 616 581 548 567 471 533 655 710
864 887 880 832 725 661 581 238 39 5 0 0 0 0 0 0 0 0 10 29 115 141 128 23 4 102 70 0 0 0 32 298 310 190 84 32 29 1 7 15 22 44 92
752 989 1051 862 773 740 629 432 63 0 0 0 0 0 0 0 0 0 0 0 13 25 10 0 2 28 3 0 0 0 0 0 0 0 0 0 0 0 0 0 0 0 0
831 872 833 811 812 771 587 367 78 8 0 0 0 0 0 0 0 0 0 0 0 0 0 0 0 21 25 0 0 0 0 0 0 0 0 0 0 0 0 0 0 0 0
952 1024 979 949 883 658 399 315 102 5 0 0 0 0 0 0 0 0 0 0 0 0 0 0 0 0 33 31 5 0 0 0 0 0 0 0 0 0 0 0 0 0 0
823 932 1014 939 828 501 350 280 98 14 0 0 0 0 0 0 0 0 0 0 0 0 0 0 0 0 0 11 26 18 0 0 0 0 0 0 0 0 0 0 0 0 0
479 729 927 1043 922 564 265 124 67 1 0 0 0 0 0 0 0 0 0 0 0 0 0 0 0 0 0 0 0 3 9 0 0 0 0 0 0 0 0 0 0 0 0
635 543 786 1054 972 684 347 102 43 0 0 0 0 0 0 0 0 0 0 0 0 0 0 0 0 0 0 0 0 0 3 0 0 0 0 0 0 0 0 1 1 0 0
740 546 918 955 932 723 463 149 59 16 3 0 0 0 0 0 0 0 0 0 0 0 0 0 0 0 0 0 0 0 0 0 1 11 0 0 0 0 0 4 13 9 0
745 481 805 920 852 818 493 283 116 54 13 0 0 0 0 0 0 0 0 0 0 0 0 0 0 1 0 4 0 0 0 0 0 0 0 0 0 0 0 0 0 0 0
689 552 654 895 816 808 598 475 325 123 52 0 0 0 0 0 0 0 0 0 0 0 0 0 0 0 4 2 0 0 0 0 0 0 0 0 0 0 0 0 0 0 0
714 621 836 843 877 762 561 521 453 258 113 7 0 0 0 0 0 0 0 0 0 0 0 0 0 2 6 0 0 0 0 0 1 0 0 0 0 0 0 0 0 0 0
760 613 755 870 879 748 574 476 429 375 229 114 28 0 0 0 0 1 0 0 0 0 0 0 2 0 0 7 0 0 0 0 0 0 0 0 0 0 0 0 0 0 0
901 779 622 905 890 806 653 537 372 363 353 288 197 61 10 5 0 0 0 0 0 0 0 0 2 0 1 0 1 0 0 0 0 0 0 0 0 0 0 0 0 0 0
1133 943 804 787 967 862 746 573 479 378 335 408 408 226 62 73 28 0 0 1 0 0 1 0 0 0 0 0 0 0 0 2 0 0 0 5 0 0 0 0 0 0 0
1125 1115 1034 854 791 993 745 618 557 509 509 473 501 393 224 101 83 64 2 0 0 1 9 11 19 0 1 17 0 0 0 0 0 2 0 0 0 0 0 0 0 0 0
1135 1240 1194 1148 1002 1014 836 766 713 734 696 608 510 466 485 436 234 160 103 6 0 5 15 33 5 4 26 0 0 0 0 0 0 0 0 0 0 0 0 0 0 0 0
1306 1317 1313 1242 1242 1202 833 806 727 732 700 739 554 452 514 526 341 136 138 23 0 1 5 2 0 0 8 0 1 0 0 0 0 0 0 0 0 0 0 0 0 0 0
1676 1580 1586 1479 1344 1408 957 753 704 872 831 811 694 573 447 546 220 90 160 1 0 3 12 9 1 17 2 0 0 0 0 0 0 0 0 0 0 0 0 0 0 0 0

GFSMA_con_mlcape_033.txt.gz
CAPE
1208 1353 1216 1256 1390 962 1064 771 1156 1214 1169 1088 697 411 158 569 594 637 376 183 486 667 697 971 1374 1282 1345 1217 1232 836 1052 477 831 944 1098 975 935 1065 833 342 510 640 327
1263 1392 1136 1113 1131 1470 1723 1060 1157 816 1001 993 734 721 434 475 583 758 677 372 329 337 675 679 772 1502 1486 1320 1339 1315 1461 1161 1150 1276 925 826 1123 845 487 349 554 792 761
1116 1307 1408 1168 1329 1609 1598 1534 1053 976 49 11 32 12 34 192 252 604 892 453 245 219 395 916 783 711 1070 1498 1521 1420 1431 1264 1175 761 1265 758 1070 1196 950 634 458 799 958
883 1157 1329 1269 1377 1480 865 1111 731 909 271 2 1 20 33 42 20 346 600 697 674 522 273 159 695 480 567 608 808 1625 1246 1076 1102 1073 800 671 1315 1120 1107 1130 897 788 628
913 1049 1255 1376 1428 1458 973 1234 1074 606 53 5 23 25 52 41 82 149 350 649 802 822 563 143 222 449 842 1065 1091 735 938 1196 969 497 649 836 988 824 963 1004 1017 741 540
1160 1205 1348 1486 1442 1431 1287 1238 921 356 0 4 0 33 41 118 122 180 174 125 491 922 890 739 642 545 260 388 1229 1099 717 757 663 765 633 581 757 852 800 492 629 526 599
1317 1431 1391 1394 1521 1168 1439 1254 763 373 0 0 0 34 31 64 49 54 115 433 794 969 1043 914 809 673 870 336 466 799 1038 1163 934 859 663 656 613 512 526 522 493 597 715
1461 1517 1387 1404 1527 1323 1236 1146 482 249 79 0 0 9 15 37 48 37 106 512 802 590 533 619 646 846 810 737 704 777 934 1001 882 715 635 597 641 522 380 189 268 244 362
1468 1465 1554 1411 1528 1376 1312 1127 535 227 18 0 0 1 12 25 65 24 33 401 521 248 230 76 79 481 410 1 0 0 69 212 151 5 0 0 0 0 0 0 0 0 0
1408 1478 1621 1414 1516 1493 1387 1181 666 340 0 0 0 0 8 85 34 5 10 119 261 184 169 23 34 148 68 0 0 0 0 0 0 0 0 0 0 0 0 0 0 0 0
1245 1400 1688 1471 1544 1518 1524 1345 749 344 50 1 0 0 0 0 23 34 12 0 18 14 46 21 12 44 77 13 0 0 0 0 0 0 0 0 0 0 0 0 0 0 0
1173 1306 1576 1578 1543 1510 1523 1313 862 533 140 7 26 0 0 0 0 31 27 18 13 0 0 0 0 0 48 31 7 0 0 0 0 0 0 0 0 0 0 0 0 0 0
1076 1393 1641 1580 1557 1560 1540 1182 731 565 240 49 13 63 31 0 0 0 0 3 0 0 0 0 0 0 0 49 68 8 0 0 0 0 0 0 0 0 0 0 0 0 0
1034 1535 1575 1584 1588 1571 1381 967 791 588 252 139 3 7 57 28 0 0 0 0 0 0 0 0 0 0 0 0 2 10 17 0 0 0 0 0 0 0 0 0 0 0 0
1017 1319 1532 1538 1565 1583 1286 988 730 529 236 119 46 28 35 31 0 0 0 0 0 0 0 0 0 0 5 15 2 6 44 61 0 0 0 0 0 0 0 0 0 0 0
1090 1096 1193 1369 1433 1602 1407 1039 694 495 252 112 73 69 29 33 18 0 0 0 0 0 0 0 0 0 0 0 6 41 55 0 0 0 0 0 0 0 0 0 0 0 0
1142 1264 1304 1329 1341 1570 1440 1183 924 578 349 220 107 77 53 85 21 0 0 0 0 0 0 0 0 0 0 6 8 37 26 66 59 0 0 0 0 0 0 0 0 0 0
1193 1341 1367 1437 1444 1546 1368 1276 1152 710 569 410 279 97 40 28 9 21 0 0 0 0 0 21 15 11 0 26 16 36 16 3 31 8 0 0 0 0 0 0 0 0 0
1271 1317 1403 1368 1356 1516 1435 1241 1353 1028 749 608 425 179 74 53 0 0 0 0 0 0 0 0 0 18 18 20 29 16 11 13 7 0 0 0 0 0 0 0 0 0 0
1299 1287 1338 1386 1337 1382 1468 1319 1337 1247 995 843 630 397 224 153 21 22 22 12 30 7 19 5 0 11 42 69 27 8 3 6 17 0 0 0 0 0 0 0 0 0 0
1276 1343 1316 1408 1409 1442 1444 1320 1398 1297 1104 950 784 545 390 294 147 100 64 185 134 50 48 14 18 18 6 15 0 0 0 7 9 17 2 36 24 12 0 0 0 0 0
1397 1403 1354 1358 1372 1270 1193 956 1306 1267 1204 1030 892 782 632 273 81 28 0 79 173 45 94 49 8 15 27 51 0 31 15 0 29 85 79 20 126 71 51 19 0 0 0
1483 1420 1306 1364 1364 1380 870 736 779 1325 1253 1173 1055 982 905 644 226 219 20 0 0 6 80 251 121 82 76 68 25 27 28 72 99 105 69 37 137 121 3 0 0 0 0
1648 1592 1455 1404 1414 1493 967 570 698 1109 1351 1318 1160 1105 1084 853 651 505 501 252 119 123 21 26 288 269 72 115 58 53 73 128 128 101 139 4 0 2 0 0 0 0 0
1675 1765 1835 1698 1533 1577 1023 701 570 977 1323 1311 1238 1159 1180 1011 874 411 482 571 438 429 136 11 41 31 0 0 22 63 55 57 8 5 3 0 0 0 0 0 0 0 0
1732 1792 1815 1836 1720 1660 1169 712 700 1065 1190 1372 1364 1229 841 1171 847 332 463 682 700 510 152 13 1 0 0 1 0 40 39 0 1 0 3 0 0 0 0 0 0 0 0

GFSMA_con_mlcape_036.txt.gz
CAPE
1602 1567 1447 1331 1356 1368 869 961 894 729 854 527 197 116 30 27 80 109 247 294 645 774 765 959 1175 1098 1331 1359 1220 1228 789 356 783 1011 1155 1079 1016 1061 766 380 406 713 347
1861 1349 1431 1226 1232 1416 1271 418 822 716 884 836 284 129 28 50 179 129 104 179 230 534 694 862 1104 1466 1501 1360 1315 1128 1216 1031 966 1338 860 1111 1071 871 685 399 462 656 802
1635 1220 1178 1289 1135 1138 1068 1007 1062 1182 533 227 199 28 22 48 75 155 70 194 150 99 452 792 914 937 1415 1493 1552 1352 1397 1375 1325 985 1169 863 779 741 1003 883 573 701 961
1623 1502 1488 1377 1586 1061 909 971 1258 793 401 103 10 59 28 40 43 54 41 137 127 416 108 542 603 600 733 1127 1224 1481 1567 1074 1313 1134 848 811 672 1408 1133 880 865 807 851
1462 1856 1488 1460 1894 1575 1041 1108 1024 646 123 77 49 45 59 56 62 53 82 152 330 322 373 25 274 471 897 1032 899 710 1204 1442 1144 911 842 642 972 921 818 859 1068 1090 669
1310 1892 1512 1285 1408 1474 1228 1238 1204 565 32 3 0 6 51 44 102 82 59 73 197 577 463 471 445 400 288 587 1256 1270 794 840 882 654 590 423 640 710 678 565 447 437 502
1817 2224 1687 1533 1480 1266 1387 1380 861 758 33 0 7 27 46 57 105 70 75 96 60 155 148 294 624 353 627 174 382 800 1055 1200 1092 992 846 501 628 591 572 506 481 371 511
2046 2294 2010 1764 1838 1601 1877 1613 1317 277 86 0 15 33 27 29 47 72 148 78 76 43 14 14 62 239 270 593 571 709 884 955 950 698 597 616 552 421 335 293 162 193 198
2119 2423 1852 1524 1929 1560 1456 1832 1483 883 94 0 12 41 20 18 32 29 144 50 21 41 2 0 2 157 56 0 0 0 197 237 46 0 0 0 0 0 0 0 0 0 0
1971 2106 2285 2292 2214 1709 1687 1769 1452 1022 519 0 0 0 53 141 39 24 8 107 27 32 15 9 2 0 0 0 0 0 0 0 0 0 0 0 0 0 0 0 0 0 0
2001 1828 2186 2337 2286 2055 1911 2149 1807 1528 625 16 0 0 0 0 37 23 34 19 51 15 18 0 21 28 8 0 0 0 0 0 0 0 0 0 0 0 0 0 0 0 0
1396 1725 1778 2304 2370 2051 2180 2238 2128 1635 1126 341 0 6 0 0 0 13 11 7 26 18 10 10 2 4 28 10 0 0 0 0 0 0 0 0 0 0 0 0 0 0 0
879 1199 1832 2021 2135 2446 2206 2361 2239 1477 1462 845 251 5 0 0 0 0 0 1 0 2 0 2 6 0 0 6 19 0 0 0 0 0 0 0 0 0 0 0 0 0 0
998 1057 1533 1849 2151 2166 2401 2421 2087 1621 1213 1204 666 30 15 2 0 0 0 0 0 0 0 0 0 0 0 0 4 0 1 0 0 0 0 0 0 0 0 0 0 0 0
1225 1323 1478 2093 2149 2097 2408 2364 1851 1544 999 1236 666 260 19 8 1 0 0 0 0 0 0 0 0 0 0 1 1 37 95 57 26 1 0 0 0 0 0 0 0 0 0
1689 1338 1672 1935 2070 2113 2353 2324 1825 1618 1231 939 339 99 99 0 24 10 0 0 0 0 0 0 0 0 0 0 13 29 122 61 25 0 0 0 0 0 0 0 0 0 0
2046 1900 1860 1872 1765 1938 2225 2371 1992 1570 1405 1109 458 147 370 135 17 17 20 1 0 0 0 0 0 36 55 30 0 7 31 31 29 0 0 0 0 0 0 0 0 0 0
2168 2173 2120 2093 1965 1819 2094 2409 2176 1559 1571 1305 972 525 347 319 259 71 35 21 2 1 0 0 1 2 98 54 146 200 17 17 20 8 0 0 0 0 0 0 0 0 0
2361 2013 2241 2366 2140 1917 2036 2383 2215 2003 1772 1594 1237 970 631 337 327 29 58 7 44 33 49 0 0 34 0 41 127 180 122 32 14 2 0 0 0 0 0 0 0 0 0
2396 2261 2358 2520 2374 2134 1945 2022 2214 2042 2044 1821 1629 1259 908 438 388 335 119 188 121 42 56 55 3 0 29 15 38 2 23 118 19 29 3 0 0 0 0 0 0 0 0
2442 2466 2445 2502 2610 2206 1738 2013 2202 1997 2156 2137 1828 1560 1184 950 481 477 224 293 310 292 50 134 114 24 21 16 25 14 10 18 66 100 42 55 23 40 22 0 0 0 0
2515 2568 2547 2599 2435 2241 1618 1270 2089 2032 2186 2276 2174 1806 1558 1045 708 412 270 286 445 534 376 90 129 85 117 52 14 19 2 41 26 81 176 77 42 23 88 80 2 0 0
2573 2565 2556 2614 2509 2521 1696 1114 1189 1837 2118 2350 2412 2051 1794 1506 1066 974 344 126 151 380 360 485 369 210 180 229 148 141 101 51 48 108 174 69 30 23 13 7 0 0 0
2635 2704 2678 2702 2686 2693 2105 1265 1037 1581 2141 2311 2393 2260 2156 1833 1638 1284 1126 556 217 377 282 204 405 516 545 443 397 224 119 102 120 140 101 53 19 3 1 0 0 0 0
2693 2727 2653 2899 2847 2721 2089 1543 1172 1479 1554 2248 2464 2345 2359 2232 2044 1132 1246 1243 705 411 265 140 182 163 316 177 305 108 31 31 39 42 55 23 5 1 0 0 0 0 0
2631 2552 2585 2903 2977 2914 2343 1567 1316 1576 1606 1687 2375 2553 1917 2154 1915 1146 1071 1459 1264 1000 823 447 190 57 41 6 0 8 29 29 32 16 28 0 0 0 0 0 0 0 0

GFSMA_con_mlcape_042.txt.gz
CAPE
1059 1029 1096 968 1136 945 912 1144 753 511 81 193 76 173 7 156 236 101 242 340 544 1054 1410 1382 1090 1326 1297 1242 966 728 765 1232 1139 1175 1122 1090 1017 853 663 522 315 552 508
1036 1469 1108 976 1091 519 251 1029 1081 914 368 217 27 58 20 3 329 237 53 350 325 688 1012 1188 1247 1164 1379 1389 1400 1144 1321 362 865 1177 1124 1100 1005 1021 993 729 365 483 804
1722 1454 1464 975 890 1451 1383 1065 1068 545 52 466 21 0 64 33 22 118 173 146 395 576 915 1085 1316 1576 1300 1475 1458 1471 1279 1268 918 986 1397 1078 961 945 911 896 991 715 552
1791 1418 411 922 1183 1192 1164 940 587 745 335 83 19 26 38 29 7 107 175 266 241 296 650 952 908 1175 1519 1647 1544 1570 1362 1032 1095 1221 1112 609 1211 655 903 1201 894 814 919
1615 1528 918 71 790 1349 902 953 623 695 502 91 2 69 42 18 14 40 91 254 308 204 361 342 619 636 1016 1230 1233 1104 1113 1178 921 765 643 702 858 853 742 785 678 978 1011
1619 1603 1092 695 1552 788 1247 1104 355 0 0 1 15 3 22 15 23 44 58 143 354 233 193 238 298 282 742 1032 1208 1283 930 840 586 670 612 658 661 439 514 481 547 549 606
1622 1732 1578 1362 1465 1007 807 1066 374 63 269 0 31 41 6 45 66 14 48 68 180 70 169 647 366 342 306 553 535 856 974 973 679 498 423 381 462 476 464 490 573 599 402
1487 1838 1522 1419 1359 1511 1345 593 764 570 11 2 64 21 26 61 62 42 58 90 50 66 11 38 327 519 216 599 154 440 662 779 622 452 418 437 471 435 445 369 236 80 0
1928 1672 1621 1340 1159 1530 1345 1332 705 743 1 0 14 13 8 27 57 15 16 7 24 0 0 0 20 246 106 0 0 150 393 306 34 0 0 0 0 0 0 0 0 0 0
1539 2164 1754 1645 1440 1592 1327 1218 1370 1278 199 0 0 25 92 228 48 24 18 0 33 0 0 0 0 0 0 0 0 0 0 0 0 0 0 0 0 0 0 0 0 0 0
1894 2135 2104 1660 1892 1626 1498 1442 1498 603 1182 312 0 0 0 12 59 65 17 32 4 35 0 13 8 0 0 0 0 0 0 0 0 0 0 0 0 0 0 0 0 0 0
1724 2220 2309 2017 1914 1980 1799 1579 2133 1634 1230 964 250 0 0 0 0 1 32 24 7 8 28 0 0 0 0 0 0 0 0 0 0 0 0 0 0 0 0 0 0 0 0
1777 2018 1882 2209 1951 1859 2037 2086 1739 2245 1685 1318 522 163 0 0 2 0 11 51 94 15 3 0 0 0 0 23 0 0 0 0 0 0 0 0 0 0 0 0 0 0 0
1223 1980 1521 2181 1915 2141 1865 2451 2466 2067 2412 1580 1604 217 219 130 0 0 0 0 0 1 77 0 1 0 0 5 0 0 0 0 0 0 0 0 0 0 0 0 0 0 0
1557 1341 1813 2067 2061 2413 1974 2521 2292 2550 2207 2008 1632 1430 138 319 69 0 0 0 0 1 18 23 0 0 23 0 0 0 0 0 0 0 0 0 0 0 0 0 0 0 0
1111 1985 2293 2135 2501 2498 2532 2577 2658 2152 2233 2272 1805 1651 780 83 88 81 25 3 0 0 0 60 10 0 0 13 0 13 11 0 0 0 0 0 0 0 0 0 0 0 0
2559 1507 2714 2601 2498 2441 2505 2776 2229 2318 2128 2099 1884 1522 1365 277 19 332 63 48 31 13 0 0 341 149 32 0 0 6 3 15 7 2 0 0 0 0 0 0 0 0 0
2170 2807 2312 2328 2372 2249 2727 2516 2595 1836 2311 2278 1757 1591 1614 1020 162 298 809 113 66 163 98 61 255 262 191 111 49 187 44 48 177 3 0 0 0 0 0 0 0 0 0
2946 2383 3055 2790 2372 2583 2547 2883 2645 2401 1496 2661 2486 1810 1285 1308 784 91 367 494 365 387 495 164 231 501 478 618 229 177 318 163 42 12 0 0 0 0 0 0 0 0 0
2626 2901 2811 2907 3082 2823 2809 2738 2882 2950 2613 1931 2868 2554 1944 1391 988 766 150 90 403 576 268 336 339 137 276 432 448 226 275 396 223 77 1 0 0 0 0 0 0 0 0
3209 2969 3067 3189 3051 3173 3061 2871 2768 2921 2986 2695 2301 2746 2525 2063 1417 1094 1091 649 256 237 802 334 347 405 255 326 189 143 129 117 188 258 45 12 34 0 0 0 2 5 3
3443 3537 3347 3111 3240 3253 3157 2819 2819 2883 2996 2928 2761 2575 2721 2421 1977 1427 1145 1125 745 216 91 384 452 312 331 310 420 227 98 95 73 43 1 18 64 97 86 65 43 13 0
3602 3564 3618 3477 3100 3354 3081 2802 2603 2872 2947 3008 3013 2891 2730 2755 2300 1843 1282 1072 754 605 372 156 126 300 488 573 582 400 290 158 64 132 51 27 1 38 25 0 0 0 0
3671 3614 3695 3690 3476 3370 3156 2818 2583 2680 2818 2880 3011 3083 2962 2695 2705 2233 1714 1168 939 513 406 579 494 341 434 687 585 596 285 190 155 157 170 37 1 0 0 0 0 0 0
3702 3882 3780 3771 3736 3650 3311 2968 2632 2613 2622 2671 2953 3029 3036 2969 2784 2260 2061 1565 1076 797 431 304 488 1022 782 474 531 520 339 187 88 54 239 73 59 17 0 0 0 0 0
3923 3855 3856 3826 3822 3747 3620 3109 2762 2954 2621 2507 2613 2861 2785 2974 2909 2390 2110 1985 1634 1071 823 500 252 220 232 218 327 545 354 177 106 73 63 38 19 0 0 0 0 0 0

GFSMA_con_mlcape_045.txt.gz
CAPE
282 658 700 606 432 494 600 998 981 622 180 37 137 82 490 165 36 31 449 1139 1277 1296 1412 1170 1310 1260 1000 643 593 1046 1207 1221 942 1061 961 1000 814 646 528 417 213 393 427
846 781 918 804 832 595 42 1094 728 673 240 188 57 26 139 82 42 43 90 541 1002 1173 1418 1462 1173 1277 1386 1238 1301 1074 733 806 1015 866 1157 1109 939 960 1042 876 400 371 692
889 1080 1005 828 506 589 473 1049 856 432 164 199 17 8 47 67 82 51 31 164 567 832 1079 1267 1148 1033 1292 1317 1366 1103 1128 840 278 445 1253 976 1070 1036 965 1035 987 841 622
1546 844 667 861 836 1041 1078 761 800 364 147 126 36 41 35 60 56 88 43 37 81 163 683 1049 1070 1187 1062 1541 1378 1349 1345 958 1023 1205 1042 1102 978 914 801 1087 1027 882 769
1529 920 470 365 11 1194 921 846 311 401 334 91 31 28 10 24 41 123 101 137 147 78 161 677 695 823 1401 1377 1369 1295 1193 1094 1098 934 946 791 930 934 769 788 676 635 874
1368 1205 805 305 627 733 1102 985 55 22 15 19 23 28 11 33 36 52 108 186 174 144 176 165 286 309 725 1012 1079 825 916 773 863 784 735 719 723 652 517 546 479 600 533
1414 1332 729 839 839 985 679 618 0 6 0 14 25 27 8 46 21 10 85 208 157 114 116 87 144 122 500 902 1029 1224 1016 821 572 467 404 355 428 477 454 535 534 523 406
1421 1518 1193 1219 1090 1001 674 778 466 217 0 10 38 7 0 15 35 41 45 110 85 114 94 176 223 165 209 138 151 486 740 762 789 597 544 463 465 409 369 266 145 0 0
1233 1416 1381 1099 996 1213 1030 754 404 397 0 0 26 1 14 31 25 28 25 32 17 0 1 149 260 240 154 118 20 199 374 379 315 163 40 0 0 0 0 0 0 0 0
988 1191 1566 1158 1065 1126 1276 843 416 269 0 0 0 24 11 22 8 0 3 0 0 0 0 0 72 158 39 0 0 0 4 0 0 0 0 0 0 0 0 0 0 0 0
705 1552 1620 1248 1106 1303 1114 744 1278 1058 2 0 0 0 0 0 20 12 2 1 0 0 0 0 0 0 0 0 0 0 0 0 0 0 0 0 0 0 0 0 0 0 0
782 1073 1975 1661 1515 1331 1132 1181 1398 459 931 349 8 0 0 0 0 11 18 9 11 3 0 0 0 0 0 0 0 0 0 0 0 0 0 0 0 0 0 0 0 0 0
1129 1320 1847 1852 1545 1433 1510 1642 1658 1177 288 748 568 0 0 0 0 0 1 19 14 8 0 0 0 0 0 0 0 0 0 0 0 0 0 0 0 0 0 0 0 0 0
982 1201 1460 2089 1690 1440 1390 1499 1599 1778 1420 537 728 74 0 50 0 0 0 0 0 0 0 0 0 0 0 0 0 0 0 0 0 0 0 0 0 0 0 0 0 0 0
1065 1259 1369 1824 1912 1600 1294 1423 2065 1685 1923 1621 856 457 134 20 96 0 0 0 0 0 6 21 0 0 8 48 0 0 0 0 0 0 0 0 0 0 0 0 0 0 0
458 1470 1656 1728 1667 1683 1495 1324 1785 2214 1723 1957 1602 1101 284 225 101 173 0 0 0 0 0 7 1 30 32 15 0 0 0 0 0 0 0 0 0 0 0 0 0 0 0
1622 750 1380 1813 1762 1821 1803 1587 1511 2094 2065 2040 1891 1572 1193 455 20 59 93 14 0 0 0 0 45 22 37 44 6 0 0 60 0 0 0 0 0 0 0 0 0 0 0
1216 1927 1994 1896 2130 1974 1871 1992 1913 2109 1911 1772 2043 1721 1506 1324 669 0 210 50 16 23 0 0 137 234 29 16 7 40 54 17 19 16 0 0 0 0 0 0 0 0 0
1573 1420 1984 2369 2092 2098 2100 2129 1994 1910 1868 2009 1923 1748 1544 1345 902 715 34 410 338 65 169 56 105 153 100 127 106 66 41 56 147 167 22 6 0 0 0 0 0 0 0
1654 1912 1678 2013 2436 2247 2128 2115 2077 1944 1921 1564 2010 2245 1957 1605 1316 972 608 54 396 505 276 274 89 124 305 437 171 144 139 188 121 162 43 21 0 0 0 0 0 0 0
2112 2007 2127 2135 2373 2415 2311 2117 2184 2243 2176 1941 1475 1872 2184 2034 1693 1219 906 382 31 347 535 252 232 164 69 171 316 217 149 96 204 163 40 2 0 0 0 0 0 0 0
2309 2499 2346 2290 2418 2692 2592 2349 2310 2347 2465 2375 2145 1809 2055 2313 2152 1756 1321 913 399 6 6 524 218 166 145 72 180 264 212 126 162 169 121 55 0 6 0 0 0 0 0
3176 2742 2729 2642 2543 2654 2642 2583 2498 2589 2521 2620 2568 2522 2172 2283 2333 2175 1614 1413 1040 729 179 0 178 190 122 175 158 173 152 61 31 15 55 59 16 6 0 0 0 0 0
3250 3388 3193 3068 2969 2878 2664 2489 2592 2821 2733 2614 2710 2701 2651 2503 2474 2410 2206 1736 1305 1056 845 404 67 85 240 201 181 221 187 83 31 11 0 0 44 30 0 0 0 0 0
3182 3255 3455 3396 3315 3224 2928 2621 2536 2738 2858 2801 2802 2877 2909 2858 2728 2389 2480 2161 1758 1439 949 619 498 199 72 324 547 570 286 82 25 9 13 20 18 52 33 0 0 0 0
3269 3288 3338 3466 3402 3390 3315 2867 2665 2926 2814 2823 2819 2819 2775 3010 2975 2571 2519 2412 2163 1808 1371 734 454 320 376 259 263 222 155 102 67 32 53 42 44 33 22 0 0 0 0

GFSMA_con_mlcape_048.txt.gz
CAPE
78 129 146 363 278 365 489 706 845 586 177 42 60 475 728 444 301 379 963 1573 1335 1452 1391 1146 540 396 549 910 1050 1060 1105 1169 754 737 935 1043 914 701 452 344 190 340 485
553 620 638 582 462 507 392 436 822 505 342 128 42 207 488 241 64 99 871 1164 1255 1383 1476 1256 1304 1229 1115 673 618 834 936 1191 1113 1134 1107 1005 805 923 984 903 453 297 404
554 760 560 599 593 529 321 565 522 300 85 147 19 89 125 51 21 9 217 390 906 1352 1412 1475 1147 1267 1404 1214 1277 1054 1171 393 704 791 1065 831 933 982 965 985 906 978 816
783 782 763 600 586 742 862 872 663 249 51 73 31 71 75 51 45 21 35 73 327 755 1283 1367 1311 1090 1252 1301 1372 1488 1100 1164 984 759 881 1123 605 931 545 947 1033 684 693
1000 461 386 542 546 606 900 818 442 439 185 97 51 50 56 90 54 47 17 2 46 244 519 891 910 1057 1288 1325 1389 1181 1293 1296 898 989 1022 981 862 756 767 596 524 381 455
924 456 546 145 0 954 734 645 457 128 74 71 88 17 23 59 74 65 88 49 73 24 77 339 391 427 716 1435 1351 1312 1103 930 886 831 723 588 551 432 365 342 333 317 426
905 670 467 474 476 726 804 492 0 0 0 28 34 25 32 46 60 45 38 98 99 69 16 101 79 107 302 731 792 860 1098 889 770 500 420 349 381 482 388 331 305 278 292
962 814 417 633 565 928 520 588 6 3 0 16 24 17 13 35 15 9 13 70 60 53 101 29 1 20 141 410 476 724 717 762 829 704 499 351 289 285 226 175 89 0 0
1098 1121 960 644 879 1016 680 629 381 89 0 19 11 0 4 0 9 0 5 25 5 0 11 73 73 111 39 20 15 157 222 259 379 283 76 6 0 0 0 0 0 0 0
1105 1336 1059 951 793 907 1028 815 252 358 0 0 1 20 0 15 0 0 0 3 1 0 0 10 105 147 50 0 0 1 55 0 0 0 0 0 0 0 0 0 0 0 0
1097 1112 1103 1175 745 926 843 723 554 250 0 0 0 0 0 5 9 0 0 0 0 0 0 6 48 51 30 0 0 0 0 0 0 0 0 0 0 0 0 0 0 0 0
793 916 987 1098 907 746 1061 887 915 698 156 0 0 0 0 0 0 11 4 0 0 0 0 0 0 0 0 0 0 0 0 0 0 0 0 0 0 0 0 0 0 0 0
348 573 1028 1261 1368 1104 1013 772 954 1103 696 349 3 0 0 0 0 0 0 0 0 0 0 0 0 0 0 0 0 0 0 0 0 0 0 0 0 0 0 0 0 0 0
341 429 758 1077 1514 1488 1207 1173 1278 1155 588 455 449 118 0 0 0 0 0 0 0 10 0 0 0 0 0 0 0 0 0 0 0 0 0 0 0 0 0 0 0 0 0
328 488 826 1251 1455 1556 1386 1283 1322 1507 1404 924 386 576 102 8 75 19 0 0 0 0 0 37 17 1 1 0 0 0 0 0 0 0 0 0 0 0 0 0 0 0 0
350 513 840 1255 1486 1471 1529 1218 1197 1441 1660 1487 1318 884 432 184 54 93 42 0 0 0 0 0 48 23 11 19 2 0 0 0 0 0 0 0 0 0 0 0 0 0 0
590 734 979 1175 1386 1490 1526 1414 1117 1327 1609 1651 1609 1483 1100 343 44 75 68 20 0 0 0 0 3 16 20 25 9 17 0 0 0 0 0 0 0 0 0 0 0 0 0
406 834 1023 1267 1486 1604 1624 1555 1256 1280 1443 1695 1817 1736 1608 1362 832 78 34 80 29 0 0 0 0 68 23 30 22 1 0 0 0 0 0 0 0 0 0 0 0 0 0
712 606 1275 1547 1312 1426 1732 1672 1483 1374 1329 1448 1804 1769 1739 1679 1431 1013 191 26 63 45 0 0 0 12 48 28 37 7 0 0 0 4 0 0 0 0 0 0 0 0 0
889 757 835 1434 1849 1931 1739 1721 1700 1595 1559 1528 1613 1681 1675 1682 1636 1452 1032 433 31 78 194 52 4 30 44 61 22 17 13 13 8 20 47 38 2 0 0 0 0 0 0
1329 1137 766 1361 1800 1932 2153 2016 1851 1683 1743 1736 1573 1677 1765 1720 1767 1650 1507 1221 610 289 35 260 138 23 51 54 49 7 0 3 29 8 17 12 2 2 0 0 0 0 0
1219 1345 1370 1386 1432 1867 2089 2025 2152 2018 1928 1926 1714 1521 1543 1709 1654 1653 1577 1604 1261 1038 542 55 196 228 93 54 97 80 34 6 34 39 33 36 0 5 5 11 0 7 0
2037 1407 1474 1591 1491 1777 1956 2009 2069 2224 2194 2109 2013 1922 1806 1753 1790 1723 1349 1354 1509 1268 1100 492 172 69 101 102 24 47 61 38 38 36 51 69 2 14 2 28 42 29 6
2569 2403 2031 1998 2062 1947 1894 1909 2023 2269 2274 2255 2327 2305 2260 2210 2012 1935 1930 1614 1392 1407 1154 790 382 249 51 45 33 31 15 31 19 15 33 43 10 43 29 25 10 0 0
2801 2845 2898 2703 2448 2546 2328 2058 1953 2244 2419 2537 2476 2430 2529 2548 2470 2091 2167 2139 1971 1643 1284 1141 1066 770 289 44 35 32 51 29 16 14 0 8 15 19 9 1 0 0 0
2957 2992 3014 3145 3120 2933 2730 2417 2211 2457 2469 2519 2674 2733 2500 2583 2586 2319 2333 2356 2353 2229 1880 1605 940 725 599 353 97 69 76 36 19 10 20 29 32 17 7 0 0 0 0